![](https://secure.gravatar.com/avatar/900f734c10632692418d1b47311b6af5.jpg?s=120&d=mm&r=g)
12 Dec
2019
12 Dec
'19
4:42 p.m.
The following Amateur Radio satellite has been added to this week's TLE distribution:
SMOG-P - NORAD CAT ID 44832 (per Nico Janssen, PA0DLO).
The Israeli student satellite Duchifat3 was successfully placed in orbit by ISRO (India) on December 11, 2019 along with several other satellites. Therefore, it will take a while for those objects to separate enough to accurately identify Duchifat3. The following is a set of preliminary TLEs supplied by Nicholas Mahr, KE8AKW (via AMSAT-BB) on December 12, 2019 for your use:
Duchifat3 1 84101U 19345.41319444 .00000000 00000-0 50000-4 0 08 2 84101 37.0000 148.0000 0001442 0.0000 140.0000 15.02563222 03